^^

..:: Storico WU ::..




Lo storico viene creato da WUnderground con i dati che la stazione Meteomincio invia al loro server. L' aggiornamento viene fatto ogni 5 minuti circa, tuttavia possono esserci intervalli pił ampi a causa di errori, interruzioni di servizio o problemi nell' invio tramite FTP.


Storico stazione MeteoMincio
Giorno Sommario per Dicembre 08, 2022 Unità:  Inglese    Metrico   Entrambi
Giorno Settimana Mese Anno
  Max: Min: Media:
Temperatura: 42.8 °F 32 °F 38.3 °F
Dew Point: 41 °F 32 °F 37 °F
Umidità: 97% 92% 95%
Velocità vento: 7.5mph 0mph 3.5mph
Raffica: 10.6mph - -
Direzione- - WSW
Pressione: 29.9 in 29.8 in -
Precipitazioni: 0.07 in    
 
 
Tabulato Dati per Dicembre 08, 2022
Ora Temperatura Dew Point Pressione Direzione Velocità vento Raffica Umidità Intensità pioggia (oraria) Info solare Situazione
00:04 35.6 °F 33.8 °F 29.9 in West 5 mph 6.8 mph 96% 0 in 0.00 W/m2 unknown
00:09 35.6 °F 33.8 °F 29.9 in West 3.7 mph 5 mph 96% 0 in 0.00 W/m2 unknown
00:14 35.6 °F 33.8 °F 29.9 in WNW 3.1 mph 5 mph 96% 0 in 0.00 W/m2 unknown
00:19 35.6 °F 33.8 °F 29.9 in WNW 5 mph 6.8 mph 96% 0 in 0.00 W/m2 unknown
00:24 35.6 °F 33.8 °F 29.9 in WNW 4.3 mph 6.8 mph 97% 0 in 0.00 W/m2 unknown
00:29 35.6 °F 33.8 °F 29.9 in WNW 5.6 mph 6.8 mph 97% 0 in 0.00 W/m2 unknown
00:34 35.6 °F 33.8 °F 29.9 in WNW 6.2 mph 9.3 mph 97% 0 in 0.00 W/m2 unknown
00:39 33.8 °F 33.8 °F 29.9 in WNW 5.6 mph 8.7 mph 97% 0 in 0.00 W/m2 unknown
00:44 33.8 °F 33.8 °F 29.9 in West 6.2 mph 6.8 mph 96% 0 in 0.00 W/m2 unknown
00:49 33.8 °F 33.8 °F 29.9 in West 3.7 mph 6.8 mph 96% 0 in 0.00 W/m2 unknown
00:54 33.8 °F 33.8 °F 29.9 in West 3.7 mph 5 mph 97% 0 in 0.00 W/m2 unknown
00:59 33.8 °F 33.8 °F 29.9 in West 3.7 mph 6.2 mph 97% 0 in 0.00 W/m2 unknown
01:04 33.8 °F 33.8 °F 29.9 in WNW 3.7 mph 6.2 mph 97% 0 in 0.00 W/m2 unknown
01:09 33.8 °F 33.8 °F 29.9 in West 3.7 mph 5 mph 97% 0 in 0.00 W/m2 unknown
01:14 33.8 °F 33.8 °F 29.9 in WNW 4.3 mph 5 mph 96% 0 in 0.00 W/m2 unknown
01:19 33.8 °F 33.8 °F 29.9 in WNW 5.6 mph 6.8 mph 97% 0 in 0.00 W/m2 unknown
01:24 33.8 °F 33.8 °F 29.9 in WNW 3.1 mph 5 mph 97% 0 in 0.00 W/m2 unknown
01:29 33.8 °F 33.8 °F 29.9 in WNW 5 mph 5 mph 97% 0 in 0.00 W/m2 unknown
01:34 33.8 °F 33.8 °F 29.9 in WNW 5 mph 6.2 mph 97% 0 in 0.00 W/m2 unknown
01:39 33.8 °F 33.8 °F 29.9 in WNW 5 mph 6.2 mph 97% 0 in 0.00 W/m2 unknown
01:44 33.8 °F 33.8 °F 29.9 in West 3.1 mph 6.2 mph 97% 0 in 0.00 W/m2 unknown
01:49 33.8 °F 33.8 °F 29.9 in WNW 3.1 mph 3.7 mph 97% 0 in 0.00 W/m2 unknown
01:54 33.8 °F 33.8 °F 29.9 in NW 2.5 mph 3.7 mph 97% 0 in 0.00 W/m2 unknown
01:59 33.8 °F 33.8 °F 29.9 in NW 1.9 mph 3.1 mph 97% 0 in 0.00 W/m2 unknown
02:04 33.8 °F 33.8 °F 29.9 in WNW 3.1 mph 3.7 mph 96% 0 in 0.00 W/m2 unknown
02:09 33.8 °F 33.8 °F 29.9 in WNW 3.1 mph 3.7 mph 97% 0 in 0.00 W/m2 unknown
02:14 33.8 °F 33.8 °F 29.9 in WNW 3.1 mph 5 mph 97% 0 in 0.00 W/m2 unknown
02:19 33.8 °F 33.8 °F 29.9 in WNW 3.1 mph 5 mph 96% 0 in 0.00 W/m2 unknown
02:24 33.8 °F 33.8 °F 29.9 in WNW 3.1 mph 3.7 mph 96% 0 in 0.00 W/m2 unknown
02:29 33.8 °F 33.8 °F 29.9 in WNW 3.7 mph 6.2 mph 97% 0 in 0.00 W/m2 unknown
02:34 33.8 °F 32 °F 29.9 in WNW 4.3 mph 6.2 mph 97% 0 in 0.00 W/m2 unknown
02:39 33.8 °F 32 °F 29.9 in West 5 mph 5 mph 97% 0 in 0.00 W/m2 unknown
02:44 33.8 °F 32 °F 29.9 in West 5 mph 6.2 mph 97% 0 in 0.00 W/m2 unknown
02:49 33.8 °F 32 °F 29.9 in WSW 5 mph 6.2 mph 97% 0 in 0.00 W/m2 unknown
02:54 33.8 °F 32 °F 29.9 in West 5 mph 6.2 mph 97% 0 in 0.00 W/m2 unknown
02:59 33.8 °F 32 °F 29.9 in West 5.6 mph 6.8 mph 97% 0 in 0.00 W/m2 unknown
03:04 33.8 °F 32 °F 29.9 in West 4.3 mph 6.8 mph 97% 0 in 0.00 W/m2 unknown
03:09 33.8 °F 32 °F 29.9 in West 4.3 mph 6.2 mph 97% 0 in 0.00 W/m2 unknown
03:14 33.8 °F 32 °F 29.9 in West 5 mph 6.8 mph 97% 0 in 0.00 W/m2 unknown
03:19 33.8 °F 32 °F 29.9 in West 5 mph 6.8 mph 97% 0 in 0.00 W/m2 unknown
03:24 33.8 °F 32 °F 29.9 in West 3.7 mph 6.2 mph 97% 0 in 0.00 W/m2 unknown
03:29 33.8 °F 32 °F 29.9 in West 5 mph 6.2 mph 97% 0 in 0.00 W/m2 unknown
03:34 33.8 °F 32 °F 29.9 in WNW 3.1 mph 6.2 mph 97% 0 in 0.00 W/m2 unknown
03:39 33.8 °F 32 °F 29.9 in WNW 3.7 mph 5 mph 97% 0 in 0.00 W/m2 unknown
03:44 33.8 °F 32 °F 29.9 in WSW 3.1 mph 5 mph 97% 0 in 0.00 W/m2 unknown
03:49 33.8 °F 32 °F 29.9 in WSW 3.1 mph 5 mph 97% 0 in 0.00 W/m2 unknown
03:54 33.8 °F 32 °F 29.9 in West 3.1 mph 5 mph 97% 0 in 0.00 W/m2 unknown
03:59 33.8 °F 32 °F 29.9 in West 3.1 mph 3.7 mph 97% 0 in 0.00 W/m2 unknown
04:04 33.8 °F 32 °F 29.9 in West 3.7 mph 5 mph 97% 0 in 0.00 W/m2 unknown
04:09 33.8 °F 32 °F 29.9 in West 3.1 mph 3.7 mph 97% 0 in 0.00 W/m2 unknown
04:14 33.8 °F 32 °F 29.9 in WNW 4.3 mph 6.2 mph 97% 0 in 0.00 W/m2 unknown
04:19 33.8 °F 32 °F 29.9 in WNW 3.7 mph 6.2 mph 97% 0 in 0.00 W/m2 unknown
04:24 33.8 °F 32 °F 29.9 in NW 3.7 mph 5 mph 97% 0 in 0.00 W/m2 unknown
04:29 33.8 °F 32 °F 29.9 in WNW 3.7 mph 5 mph 97% 0 in 0.00 W/m2 unknown
04:34 33.8 °F 32 °F 29.9 in West 4.3 mph 5 mph 97% 0 in 0.00 W/m2 unknown
04:39 32 °F 32 °F 29.9 in WNW 3.7 mph 5 mph 97% 0 in 0.00 W/m2 unknown
04:44 32 °F 32 °F 29.9 in WNW 3.7 mph 5 mph 97% 0 in 0.00 W/m2 unknown
04:49 32 °F 32 °F 29.9 in WNW 3.7 mph 5 mph 97% 0 in 0.00 W/m2 unknown
04:54 32 °F 32 °F 29.9 in WNW 2.5 mph 3.7 mph 97% 0 in 0.00 W/m2 unknown
04:59 32 °F 32 °F 29.9 in West 3.1 mph 3.7 mph 97% 0 in 0.00 W/m2 unknown
05:04 32 °F 32 °F 29.9 in WNW 4.3 mph 5 mph 97% 0 in 0.00 W/m2 unknown
05:09 32 °F 32 °F 29.9 in West 4.3 mph 5 mph 97% 0 in 0.00 W/m2 unknown
05:14 32 °F 32 °F 29.9 in West 3.7 mph 5 mph 97% 0 in 0.00 W/m2 unknown
05:19 32 °F 32 °F 29.9 in West 3.7 mph 5 mph 97% 0 in 0.00 W/m2 unknown
05:24 32 °F 32 °F 29.9 in West 4.3 mph 6.2 mph 97% 0.01 in 0.00 W/m2 unknown
05:29 32 °F 32 °F 29.9 in WNW 5 mph 6.2 mph 97% 0.01 in 0.00 W/m2 unknown
05:34 32 °F 32 °F 29.9 in WNW 5 mph 6.2 mph 97% 0.01 in 0.00 W/m2 unknown
05:39 32 °F 32 °F 29.9 in WNW 3.1 mph 6.2 mph 97% 0.01 in 0.00 W/m2 unknown
05:44 32 °F 32 °F 29.9 in West 3.7 mph 5 mph 97% 0.01 in 0.00 W/m2 unknown
05:49 32 °F 32 °F 29.9 in WNW 3.7 mph 5 mph 97% 0.01 in 0.00 W/m2 unknown
05:54 32 °F 32 °F 29.9 in West 3.7 mph 5 mph 97% 0.01 in 0.00 W/m2 unknown
05:59 32 °F 32 °F 29.9 in WNW 3.1 mph 5 mph 97% 0.01 in 0.00 W/m2 unknown
06:04 32 °F 32 °F 29.9 in WNW 4.3 mph 5 mph 97% 0.01 in 0.00 W/m2 unknown
06:09 32 °F 32 °F 29.9 in WNW 3.1 mph 5 mph 97% 0.01 in 0.00 W/m2 unknown
06:14 32 °F 32 °F 29.9 in WNW 2.5 mph 5 mph 97% 0.01 in 0.00 W/m2 unknown
06:19 32 °F 32 °F 29.9 in West 3.1 mph 3.7 mph 97% 0.01 in 0.00 W/m2 unknown
06:24 32 °F 32 °F 29.9 in West 3.1 mph 3.7 mph 97% 0.01 in 0.00 W/m2 unknown
06:29 32 °F 32 °F 29.9 in West 3.7 mph 5 mph 97% 0.01 in 0.00 W/m2 unknown
06:34 32 °F 32 °F 29.9 in West 3.7 mph 5 mph 97% 0 in 0.00 W/m2 unknown
06:39 32 °F 32 °F 29.9 in WNW 4.3 mph 5 mph 97% 0 in 0.00 W/m2 unknown
06:44 32 °F 32 °F 29.9 in WNW 4.3 mph 6.2 mph 97% 0 in 0.00 W/m2 unknown
06:49 32 °F 32 °F 29.9 in WNW 3.1 mph 6.2 mph 97% 0 in 0.00 W/m2 unknown
06:54 33.8 °F 32 °F 29.9 in WNW 3.7 mph 5 mph 97% 0 in 0.00 W/m2 unknown
06:59 33.8 °F 32 °F 29.9 in West 3.7 mph 5 mph 97% 0 in 0.00 W/m2 unknown
07:04 33.8 °F 32 °F 29.9 in WNW 3.7 mph 5 mph 97% 0 in 0.00 W/m2 unknown
07:09 33.8 °F 32 °F 29.9 in WNW 3.7 mph 5 mph 97% 0 in 0.00 W/m2 unknown
07:14 33.8 °F 32 °F 29.9 in WNW 3.7 mph 5 mph 97% 0 in 0.00 W/m2 unknown
07:19 33.8 °F 32 °F 29.9 in WNW 4.3 mph 5 mph 97% 0 in 0.00 W/m2 unknown
07:24 33.8 °F 32 °F 29.9 in NW 3.1 mph 5 mph 97% 0 in 0.00 W/m2 unknown
07:29 33.8 °F 32 °F 29.9 in WNW 3.7 mph 5 mph 97% 0 in 0.00 W/m2 unknown
07:34 33.8 °F 32 °F 29.9 in West 2.5 mph 5 mph 97% 0 in 0.00 W/m2 unknown
07:39 33.8 °F 32 °F 29.9 in WNW 3.1 mph 3.7 mph 97% 0 in 0.00 W/m2 unknown
07:44 33.8 °F 32 °F 29.9 in NW 4.3 mph 5 mph 97% 0 in 0.00 W/m2 unknown
07:49 33.8 °F 32 °F 29.9 in NW 5 mph 5 mph 97% 0 in 0.00 W/m2 unknown
07:54 33.8 °F 32 °F 29.9 in WNW 3.1 mph 5 mph 97% 0 in 5.00 W/m2 unknown
07:59 33.8 °F 32 °F 29.9 in NW 3.7 mph 4.3 mph 97% 0 in 7.00 W/m2 unknown
08:04 33.8 °F 32 °F 29.9 in WNW 2.5 mph 5 mph 97% 0 in 11.00 W/m2 unknown
08:09 33.8 °F 32 °F 29.9 in WNW 1.9 mph 3.1 mph 97% 0 in 14.00 W/m2 unknown
08:14 33.8 °F 32 °F 29.9 in WNW 1.9 mph 3.7 mph 97% 0 in 19.00 W/m2 unknown
08:19 33.8 °F 32 °F 29.9 in WSW 1.9 mph 3.7 mph 97% 0 in 23.00 W/m2 unknown
08:24 33.8 °F 32 °F 29.9 in WSW 1.9 mph 3.7 mph 97% 0 in 26.00 W/m2 unknown
08:29 33.8 °F 32 °F 29.9 in WNW 3.1 mph 3.7 mph 97% 0 in 28.00 W/m2 unknown
08:34 33.8 °F 32 °F 29.9 in West 3.7 mph 5 mph 97% 0 in 33.00 W/m2 unknown
08:39 33.8 °F 32 °F 29.9 in West 3.7 mph 3.7 mph 97% 0 in 42.00 W/m2 unknown
08:44 33.8 °F 32 °F 29.9 in West 3.7 mph 5 mph 97% 0 in 51.00 W/m2 unknown
08:49 33.8 °F 32 °F 29.9 in WSW 3.7 mph 5 mph 97% 0 in 49.00 W/m2 unknown
08:54 33.8 °F 32 °F 29.9 in SW 3.7 mph 5 mph 97% 0 in 69.00 W/m2 unknown
08:59 33.8 °F 32 °F 29.9 in WSW 4.3 mph 6.2 mph 97% 0 in 69.00 W/m2 unknown
09:04 33.8 °F 33.8 °F 29.9 in WSW 4.3 mph 6.2 mph 97% 0 in 53.00 W/m2 unknown
09:09 33.8 °F 33.8 °F 29.9 in WSW 5.6 mph 6.8 mph 97% 0 in 49.00 W/m2 unknown
09:14 33.8 °F 33.8 °F 29.9 in West 5 mph 6.8 mph 97% 0 in 49.00 W/m2 unknown
09:19 33.8 °F 33.8 °F 29.9 in West 5 mph 6.2 mph 97% 0 in 49.00 W/m2 unknown
09:24 35.6 °F 33.8 °F 29.9 in West 5 mph 6.8 mph 97% 0 in 58.00 W/m2 unknown
09:29 35.6 °F 33.8 °F 29.9 in West 5.6 mph 6.8 mph 97% 0 in 95.00 W/m2 unknown
09:34 35.6 °F 33.8 °F 29.9 in West 5 mph 6.8 mph 97% 0 in 86.00 W/m2 unknown
09:39 35.6 °F 35.6 °F 29.9 in West 5 mph 6.8 mph 97% 0 in 86.00 W/m2 unknown
09:44 35.6 °F 35.6 °F 29.9 in WSW 5 mph 6.8 mph 97% 0 in 74.00 W/m2 unknown
09:49 35.6 °F 35.6 °F 29.9 in WSW 6.8 mph 9.3 mph 97% 0 in 70.00 W/m2 unknown
09:54 35.6 °F 35.6 °F 29.9 in West 6.8 mph 8.7 mph 97% 0 in 63.00 W/m2 unknown
09:59 35.6 °F 35.6 °F 29.9 in WNW 6.8 mph 8.1 mph 97% 0 in 63.00 W/m2 unknown
10:04 35.6 °F 35.6 °F 29.9 in WNW 6.2 mph 8.1 mph 97% 0 in 69.00 W/m2 unknown
10:09 37.4 °F 35.6 °F 29.9 in West 5.6 mph 6.8 mph 97% 0 in 97.00 W/m2 unknown
10:14 37.4 °F 35.6 °F 29.9 in WSW 5 mph 6.8 mph 97% 0 in 102.00 W/m2 unknown
10:19 37.4 °F 37.4 °F 29.9 in WSW 5.6 mph 6.8 mph 97% 0 in 102.00 W/m2 unknown
10:24 37.4 °F 37.4 °F 29.9 in West 6.2 mph 8.1 mph 97% 0 in 125.00 W/m2 unknown
10:29 37.4 °F 37.4 °F 29.9 in West 6.2 mph 8.1 mph 97% 0 in 123.00 W/m2 unknown
10:34 37.4 °F 37.4 °F 29.9 in West 5 mph 8.1 mph 97% 0 in 113.00 W/m2 unknown
10:39 37.4 °F 37.4 °F 29.9 in West 5 mph 6.8 mph 97% 0 in 114.00 W/m2 unknown
10:44 37.4 °F 37.4 °F 29.9 in WNW 5 mph 8.1 mph 97% 0 in 128.00 W/m2 unknown
10:49 37.4 °F 37.4 °F 29.9 in WNW 7.5 mph 9.3 mph 97% 0 in 158.00 W/m2 unknown
10:54 39.2 °F 37.4 °F 29.9 in West 6.8 mph 9.3 mph 97% 0 in 158.00 W/m2 unknown
10:59 39.2 °F 37.4 °F 29.9 in West 7.5 mph 9.3 mph 97% 0 in 137.00 W/m2 unknown
11:04 39.2 °F 37.4 °F 29.9 in WSW 7.5 mph 9.3 mph 97% 0 in 134.00 W/m2 unknown
11:09 39.2 °F 37.4 °F 29.9 in WSW 5 mph 6.8 mph 97% 0 in 172.00 W/m2 unknown
11:14 39.2 °F 39.2 °F 29.9 in WSW 6.2 mph 9.3 mph 96% 0 in 156.00 W/m2 unknown
11:19 39.2 °F 39.2 °F 29.9 in WSW 6.2 mph 8.7 mph 96% 0 in 141.00 W/m2 unknown
11:24 39.2 °F 39.2 °F 29.9 in WSW 7.5 mph 9.3 mph 96% 0 in 127.00 W/m2 unknown
11:29 39.2 °F 39.2 °F 29.9 in West 7.5 mph 10.6 mph 96% 0 in 165.00 W/m2 unknown
11:34 41 °F 39.2 °F 29.9 in WSW 7.5 mph 9.9 mph 96% 0 in 163.00 W/m2 unknown
11:39 41 °F 39.2 °F 29.9 in WSW 6.8 mph 9.3 mph 96% 0 in 141.00 W/m2 unknown
11:44 41 °F 39.2 °F 29.9 in WSW 6.8 mph 9.3 mph 96% 0 in 179.00 W/m2 unknown
11:49 41 °F 39.2 °F 29.9 in WSW 6.2 mph 8.7 mph 95% 0 in 179.00 W/m2 unknown
11:54 41 °F 39.2 °F 29.9 in WSW 5.6 mph 8.1 mph 95% 0 in 137.00 W/m2 unknown
11:59 41 °F 39.2 °F 29.9 in WSW 6.8 mph 8.1 mph 95% 0 in 141.00 W/m2 unknown
12:04 41 °F 39.2 °F 29.9 in West 6.8 mph 8.1 mph 95% 0 in 111.00 W/m2 unknown
12:09 41 °F 39.2 °F 29.9 in West 6.2 mph 8.1 mph 95% 0 in 100.00 W/m2 unknown
12:14 41 °F 39.2 °F 29.9 in WSW 4.3 mph 5.6 mph 95% 0 in 139.00 W/m2 unknown
12:19 41 °F 39.2 °F 29.9 in West 4.3 mph 6.2 mph 95% 0 in 146.00 W/m2 unknown
12:24 41 °F 39.2 °F 29.9 in West 4.3 mph 6.2 mph 94% 0 in 142.00 W/m2 unknown
12:29 41 °F 39.2 °F 29.9 in West 5.6 mph 6.8 mph 94% 0 in 132.00 W/m2 unknown
12:34 42.8 °F 41 °F 29.9 in West 5 mph 6.8 mph 94% 0 in 151.00 W/m2 unknown
12:39 42.8 °F 41 °F 29.9 in West 5 mph 6.2 mph 94% 0 in 158.00 W/m2 unknown
12:44 42.8 °F 41 °F 29.9 in West 5.6 mph 6.8 mph 94% 0 in 120.00 W/m2 unknown
12:49 42.8 °F 41 °F 29.9 in West 5.6 mph 8.1 mph 94% 0 in 100.00 W/m2 unknown
12:54 42.8 °F 41 °F 29.9 in West 6.2 mph 8.1 mph 94% 0 in 123.00 W/m2 unknown
12:59 42.8 °F 41 °F 29.9 in WSW 6.2 mph 8.1 mph 94% 0 in 121.00 W/m2 unknown
13:04 42.8 °F 41 °F 29.9 in West 6.2 mph 8.1 mph 94% 0 in 107.00 W/m2 unknown
13:09 42.8 °F 41 °F 29.9 in West 6.2 mph 9.3 mph 94% 0 in 97.00 W/m2 unknown
13:14 42.8 °F 41 °F 29.9 in West 6.2 mph 9.3 mph 93% 0 in 100.00 W/m2 unknown
13:18 42.8 °F 39.2 °F 29.9 in WNW 6.2 mph 8.1 mph 93% 0 in 135.00 W/m2 unknown
13:24 42.8 °F 41 °F 29.9 in WNW 6.2 mph 6.8 mph 93% 0 in 151.00 W/m2 unknown
13:29 42.8 °F 41 °F 29.9 in West 6.2 mph 8.1 mph 93% 0 in 149.00 W/m2 unknown
13:34 42.8 °F 41 °F 29.9 in West 6.8 mph 8.1 mph 93% 0 in 132.00 W/m2 unknown
13:39 42.8 °F 41 °F 29.9 in West 6.2 mph 8.1 mph 93% 0 in 130.00 W/m2 unknown
13:44 42.8 °F 41 °F 29.9 in West 6.8 mph 9.3 mph 93% 0 in 120.00 W/m2 unknown
13:49 42.8 °F 41 °F 29.9 in West 7.5 mph 9.3 mph 93% 0 in 113.00 W/m2 unknown
13:54 42.8 °F 41 °F 29.9 in West 6.8 mph 9.3 mph 93% 0 in 93.00 W/m2 unknown
13:59 42.8 °F 41 °F 29.9 in West 5 mph 8.7 mph 93% 0 in 91.00 W/m2 unknown
14:04 42.8 °F 41 °F 29.8 in West 5 mph 8.1 mph 93% 0 in 86.00 W/m2 unknown
14:09 42.8 °F 41 °F 29.9 in WSW 5.6 mph 6.8 mph 93% 0 in 86.00 W/m2 unknown
14:14 42.8 °F 41 °F 29.9 in West 6.8 mph 8.1 mph 93% 0 in 95.00 W/m2 unknown
14:19 42.8 °F 41 °F 29.9 in WSW 6.2 mph 8.1 mph 93% 0 in 102.00 W/m2 unknown
14:24 42.8 °F 41 °F 29.8 in WSW 5.6 mph 8.1 mph 93% 0 in 102.00 W/m2 unknown
14:29 42.8 °F 41 °F 29.8 in WNW 5 mph 6.8 mph 93% 0 in 97.00 W/m2 unknown
14:34 42.8 °F 41 °F 29.8 in West 4.3 mph 6.8 mph 93% 0 in 97.00 W/m2 unknown
14:39 42.8 °F 41 °F 29.8 in West 5 mph 6.8 mph 93% 0 in 88.00 W/m2 unknown
14:44 42.8 °F 41 °F 29.8 in West 5 mph 6.8 mph 93% 0 in 88.00 W/m2 unknown
14:49 42.8 °F 41 °F 29.8 in West 6.2 mph 6.8 mph 93% 0 in 90.00 W/m2 unknown
14:54 42.8 °F 41 °F 29.8 in WNW 5 mph 6.8 mph 93% 0 in 83.00 W/m2 unknown
14:59 42.8 °F 41 °F 29.8 in West 5.6 mph 6.8 mph 93% 0 in 72.00 W/m2 unknown
15:04 42.8 °F 41 °F 29.8 in West 5 mph 6.8 mph 92% 0 in 76.00 W/m2 unknown
15:09 42.8 °F 41 °F 29.8 in West 4.3 mph 6.8 mph 92% 0 in 74.00 W/m2 unknown
15:14 42.8 °F 41 °F 29.8 in West 5.6 mph 6.8 mph 92% 0 in 56.00 W/m2 unknown
15:19 42.8 °F 41 °F 29.8 in West 6.2 mph 6.8 mph 92% 0 in 54.00 W/m2 unknown
15:24 42.8 °F 41 °F 29.8 in West 4.3 mph 6.8 mph 92% 0 in 53.00 W/m2 unknown
15:29 42.8 °F 41 °F 29.8 in West 3.7 mph 6.2 mph 92% 0 in 46.00 W/m2 unknown
15:34 42.8 °F 41 °F 29.8 in West 4.3 mph 6.2 mph 92% 0 in 44.00 W/m2 unknown
15:39 42.8 °F 41 °F 29.8 in WSW 3.7 mph 6.2 mph 93% 0 in 33.00 W/m2 unknown
15:44 42.8 °F 41 °F 29.8 in WSW 3.7 mph 6.2 mph 93% 0 in 30.00 W/m2 unknown
15:49 42.8 °F 41 °F 29.8 in WSW 3.7 mph 6.2 mph 93% 0 in 26.00 W/m2 unknown
15:54 42.8 °F 41 °F 29.8 in WSW 3.7 mph 5 mph 93% 0 in 25.00 W/m2 unknown
15:59 42.8 °F 41 °F 29.8 in WSW 3.1 mph 5 mph 93% 0 in 21.00 W/m2 unknown
16:04 42.8 °F 41 °F 29.8 in WSW 3.1 mph 5 mph 93% 0 in 14.00 W/m2 unknown
16:09 42.8 °F 41 °F 29.8 in WSW 3.1 mph 5 mph 93% 0 in 7.00 W/m2 unknown
16:14 42.8 °F 41 °F 29.8 in WSW 3.1 mph 5 mph 93% 0 in 5.00 W/m2 unknown
16:19 42.8 °F 41 °F 29.8 in WSW 3.1 mph 5 mph 93% 0 in 0.00 W/m2 unknown
16:24 42.8 °F 41 °F 29.8 in WSW 3.1 mph 3.7 mph 93% 0 in 0.00 W/m2 unknown
16:29 42.8 °F 41 °F 29.8 in WSW 2.5 mph 3.7 mph 93% 0 in 0.00 W/m2 unknown
16:34 42.8 °F 41 °F 29.8 in WSW 2.5 mph 3.7 mph 93% 0 in 0.00 W/m2 unknown
16:39 42.8 °F 41 °F 29.8 in WSW 2.5 mph 3.7 mph 93% 0 in 0.00 W/m2 unknown
16:44 42.8 °F 41 °F 29.8 in West 3.1 mph 3.7 mph 93% 0 in 0.00 W/m2 unknown
16:49 42.8 °F 41 °F 29.8 in West 2.5 mph 3.7 mph 93% 0 in 0.00 W/m2 unknown
16:54 42.8 °F 41 °F 29.8 in WSW 2.5 mph 3.7 mph 93% 0 in 0.00 W/m2 unknown
16:59 42.8 °F 41 °F 29.8 in WSW 2.5 mph 3.7 mph 93% 0 in 0.00 W/m2 unknown
17:04 42.8 °F 41 °F 29.8 in West 1.9 mph 3.7 mph 93% 0 in 0.00 W/m2 unknown
17:09 42.8 °F 41 °F 29.8 in WSW 1.9 mph 3.1 mph 93% 0 in 0.00 W/m2 unknown
17:14 42.8 °F 41 °F 29.8 in WSW 2.5 mph 3.7 mph 93% 0 in 0.00 W/m2 unknown
17:19 42.8 °F 41 °F 29.8 in West 2.5 mph 3.7 mph 93% 0 in 0.00 W/m2 unknown
17:24 42.8 °F 41 °F 29.8 in WNW 1.2 mph 3.1 mph 93% 0 in 0.00 W/m2 unknown
17:29 42.8 °F 41 °F 29.8 in WSW 1.2 mph 2.5 mph 93% 0 in 0.00 W/m2 unknown
17:34 42.8 °F 41 °F 29.8 in SW 3.1 mph 3.7 mph 93% 0 in 0.00 W/m2 unknown
17:39 42.8 °F 41 °F 29.8 in SW 3.1 mph 3.7 mph 93% 0 in 0.00 W/m2 unknown
17:44 42.8 °F 41 °F 29.8 in SW 2.5 mph 3.7 mph 93% 0 in 0.00 W/m2 unknown
17:49 42.8 °F 41 °F 29.8 in WSW 1.9 mph 3.7 mph 93% 0 in 0.00 W/m2 unknown
17:54 42.8 °F 41 °F 29.8 in West 1.9 mph 3.1 mph 93% 0 in 0.00 W/m2 unknown
17:59 42.8 °F 41 °F 29.8 in West 1.9 mph 2.5 mph 93% 0 in 0.00 W/m2 unknown
18:04 42.8 °F 41 °F 29.8 in SW 1.9 mph 3.7 mph 93% 0 in 0.00 W/m2 unknown
18:09 42.8 °F 41 °F 29.8 in SW 1.2 mph 3.1 mph 93% 0 in 0.00 W/m2 unknown
18:14 42.8 °F 41 °F 29.8 in SW 1.2 mph 2.5 mph 94% 0 in 0.00 W/m2 unknown
18:19 42.8 °F 41 °F 29.8 in SW 1.2 mph 2.5 mph 94% 0 in 0.00 W/m2 unknown
18:24 42.8 °F 41 °F 29.8 in SW 1.9 mph 2.5 mph 94% 0 in 0.00 W/m2 unknown
18:29 42.8 °F 41 °F 29.8 in SW 1.9 mph 2.5 mph 94% 0 in 0.00 W/m2 unknown
18:34 42.8 °F 41 °F 29.8 in SW 0.6 mph 1.9 mph 94% 0 in 0.00 W/m2 unknown
18:39 42.8 °F 41 °F 29.8 in Calm   1.2 mph 94% 0 in 0.00 W/m2 unknown
18:44 42.8 °F 41 °F 29.8 in SW 1.2 mph 2.5 mph 94% 0 in 0.00 W/m2 unknown
18:49 42.8 °F 41 °F 29.8 in SW 0.6 mph 1.9 mph 94% 0 in 0.00 W/m2 unknown
18:54 41 °F 41 °F 29.8 in SW 1.9 mph 3.7 mph 94% 0 in 0.00 W/m2 unknown
18:59 41 °F 41 °F 29.8 in SW 1.9 mph 3.7 mph 94% 0 in 0.00 W/m2 unknown
19:04 41 °F 39.2 °F 29.8 in SW 1.2 mph 3.1 mph 94% 0 in 0.00 W/m2 unknown
19:09 41 °F 39.2 °F 29.8 in SW 1.2 mph 1.9 mph 94% 0 in 0.00 W/m2 unknown
19:14 41 °F 39.2 °F 29.8 in SW 0.6 mph 1.2 mph 94% 0 in 0.00 W/m2 unknown
19:19 41 °F 39.2 °F 29.8 in SW 1.2 mph 2.5 mph 94% 0 in 0.00 W/m2 unknown
19:24 41 °F 39.2 °F 29.8 in SW 1.2 mph 2.5 mph 94% 0 in 0.00 W/m2 unknown
19:29 41 °F 39.2 °F 29.9 in SW 1.2 mph 1.9 mph 94% 0 in 0.00 W/m2 unknown
19:34 41 °F 39.2 °F 29.8 in SW 1.2 mph 1.2 mph 94% 0 in 0.00 W/m2 unknown
19:39 41 °F 39.2 °F 29.9 in WNW 1.2 mph 2.5 mph 94% 0 in 0.00 W/m2 unknown
19:44 41 °F 39.2 °F 29.9 in WNW 1.2 mph 2.5 mph 94% 0 in 0.00 W/m2 unknown
19:49 41 °F 39.2 °F 29.9 in WNW 0.6 mph 1.9 mph 94% 0 in 0.00 W/m2 unknown
19:54 41 °F 39.2 °F 29.9 in WNW 0.6 mph 1.9 mph 94% 0 in 0.00 W/m2 unknown
19:59 41 °F 39.2 °F 29.9 in WNW 1.2 mph 2.5 mph 94% 0 in 0.00 W/m2 unknown
20:04 41 °F 39.2 °F 29.9 in WNW 1.2 mph 2.5 mph 94% 0 in 0.00 W/m2 unknown
20:09 41 °F 39.2 °F 29.9 in WNW 1.2 mph 2.5 mph 94% 0 in 0.00 W/m2 unknown
20:14 41 °F 39.2 °F 29.8 in Calm   1.2 mph 94% 0 in 0.00 W/m2 unknown
20:19 41 °F 39.2 °F 29.8 in WNW 0.6 mph 1.2 mph 94% 0 in 0.00 W/m2 unknown
20:24 41 °F 39.2 °F 29.8 in WNW 0.6 mph 1.2 mph 94% 0 in 0.00 W/m2 unknown
20:29 41 °F 39.2 °F 29.8 in Calm   1.2 mph 94% 0 in 0.00 W/m2 unknown
20:34 41 °F 39.2 °F 29.8 in West 1.2 mph 2.5 mph 94% 0 in 0.00 W/m2 unknown
20:39 41 °F 39.2 °F 29.8 in WSW 1.2 mph 2.5 mph 94% 0 in 0.00 W/m2 unknown
20:44 41 °F 39.2 °F 29.8 in Calm   1.2 mph 94% 0 in 0.00 W/m2 unknown
20:49 41 °F 39.2 °F 29.8 in SW 0.6 mph 1.9 mph 94% 0 in 0.00 W/m2 unknown
20:54 41 °F 39.2 °F 29.8 in SW 0.6 mph 2.5 mph 94% 0 in 0.00 W/m2 unknown
20:59 41 °F 39.2 °F 29.8 in SSW 1.9 mph 2.5 mph 94% 0 in 0.00 W/m2 unknown
21:04 41 °F 41 °F 29.8 in South 1.2 mph 2.5 mph 94% 0 in 0.00 W/m2 unknown
21:09 41 °F 41 °F 29.8 in ESE 3.1 mph 3.7 mph 94% 0 in 0.00 W/m2 unknown
21:14 41 °F 41 °F 29.8 in SE 2.5 mph 3.7 mph 94% 0 in 0.00 W/m2 unknown
21:19 41 °F 41 °F 29.8 in Calm   3.1 mph 94% 0 in 0.00 W/m2 unknown
21:24 41 °F 41 °F 29.8 in Calm   1.2 mph 94% 0 in 0.00 W/m2 unknown
21:29 41 °F 39.2 °F 29.8 in Calm     94% 0 in 0.00 W/m2 unknown
21:34 41 °F 39.2 °F 29.8 in SE 0.6 mph 2.5 mph 94% 0 in 0.00 W/m2 unknown
21:39 41 °F 39.2 °F 29.8 in SE 1.2 mph 2.5 mph 94% 0 in 0.00 W/m2 unknown
21:44 41 °F 39.2 °F 29.8 in Calm   1.2 mph 94% 0 in 0.00 W/m2 unknown
21:49 41 °F 41 °F 29.8 in SE 0.6 mph 1.2 mph 95% 0 in 0.00 W/m2 unknown
21:54 41 °F 41 °F 29.8 in SE 1.9 mph 2.5 mph 95% 0 in 0.00 W/m2 unknown
21:59 41 °F 41 °F 29.8 in South 2.5 mph 3.7 mph 95% 0 in 0.00 W/m2 unknown
22:04 42.8 °F 41 °F 29.8 in South 2.5 mph 3.7 mph 95% 0 in 0.00 W/m2 unknown
22:09 42.8 °F 41 °F 29.8 in South 1.2 mph 3.1 mph 95% 0 in 0.00 W/m2 unknown
22:14 42.8 °F 41 °F 29.8 in South 0.6 mph 1.9 mph 95% 0.01 in 0.00 W/m2 unknown
22:19 41 °F 41 °F 29.8 in South 1.2 mph 1.9 mph 95% 0.01 in 0.00 W/m2 unknown
22:24 41 °F 41 °F 29.8 in South 1.2 mph 2.5 mph 95% 0.01 in 0.00 W/m2 unknown
22:29 41 °F 41 °F 29.8 in Calm   1.9 mph 95% 0.02 in 0.00 W/m2 unknown
22:34 41 °F 41 °F 29.8 in Calm   1.2 mph 95% 0.02 in 0.00 W/m2 unknown
22:39 41 °F 41 °F 29.8 in Calm   1.2 mph 95% 0.02 in 0.00 W/m2 unknown
22:44 41 °F 41 °F 29.8 in Calm     95% 0.02 in 0.00 W/m2 unknown
22:49 41 °F 41 °F 29.8 in Calm     95% 0.02 in 0.00 W/m2 unknown
22:54 41 °F 41 °F 29.8 in Calm     95% 0.02 in 0.00 W/m2 unknown
22:59 41 °F 41 °F 29.8 in South 0.6 mph 1.2 mph 95% 0.02 in 0.00 W/m2 unknown
23:04 41 °F 41 °F 29.8 in South 1.2 mph 1.2 mph 95% 0.03 in 0.00 W/m2 unknown
23:09 41 °F 41 °F 29.8 in Calm   1.2 mph 95% 0.03 in 0.00 W/m2 unknown
23:14 41 °F 41 °F 29.8 in Calm     95% 0.04 in 0.00 W/m2 unknown
23:19 41 °F 41 °F 29.8 in South 0.6 mph 1.2 mph 95% 0.03 in 0.00 W/m2 unknown
23:24 41 °F 41 °F 29.8 in South 1.2 mph 2.5 mph 95% 0.04 in 0.00 W/m2 unknown
23:29 41 °F 41 °F 29.8 in SSW 1.2 mph 2.5 mph 95% 0.04 in 0.00 W/m2 unknown
23:34 41 °F 41 °F 29.8 in SSW 1.2 mph 1.9 mph 95% 0.03 in 0.00 W/m2 unknown
23:39 41 °F 41 °F 29.8 in South 1.2 mph 2.5 mph 95% 0.04 in 0.00 W/m2 unknown
23:44 41 °F 41 °F 29.8 in NE 1.2 mph 2.5 mph 95% 0.04 in 0.00 W/m2 unknown
23:49 42.8 °F 41 °F 29.8 in NNE 2.5 mph 3.7 mph 95% 0.04 in 0.00 W/m2 unknown
23:54 41 °F 41 °F 29.8 in NNE 1.9 mph 3.1 mph 95% 0.04 in 0.00 W/m2 unknown
23:59 42.8 °F 41 °F 29.8 in NNE 1.9 mph 2.5 mph 95% 0.04 in 0.00 W/m2 unknown
Stazione Meteorologica MeteoMincio Rivalta s/M (MN)
Con i complimenti di Weather Underground - 4 mb



METEO PILLOLE
Il luogo più freddo della Terra
Stazione Sovetskaja - Antartide
La temperatura media nel 1957/58 è stata di - 57.3°C.
Share

Non seguire questo link o sarai bannato dal sito!